Location: Drocourt
(49.0571°N, 1.7669°E)
Time: 12:20:10
(UTC+00:00)

Cosmos 2237 Rocket - Pass Details

Date: 09 February 2023
Orbit: 835 x 849 km, 71.0° (Epoch: 24 March)

Event Time Altitude Azimuth Distance (km) Brightness Sun altitude
Rises 20:08:20 0° 219° (SW) 3,399 5.7 -30.7°
Reaches altitude 10° 20:10:49 10° 223° (SW) 2,469 4.9 -31.0°
Enters shadow 20:16:18 59° 297° (WNW) 983 2.6 -31.9°
